Torna al catalogo

SKYCRAFT 4C

AttivoScienzaSSO
NORAD 64896·PAYLOAD·🇦🇺 Australia

Lanciato Jul 23, 2025 da Vandenberg Space Force Base

Loading…

Prossimi Passaggi (prossime 24 ore)

TLE

AggiornatoSource: Space-Track

Epoca: Sep 14, 2026, 09:48 UTC

1 64896U 25154H   26257.40857775  .00001661  00000-0  15468-3 0  9996
2 64896  97.6608 319.5880 0004522 338.4419  21.6611 14.95609269212485

Traccia SKYCRAFT 4C in tempo reale con AllMySat

Download on the App Store